Regional Weather Roundup
Issued by NWS

Home | Current Version | Previous Version | Text Only | Print | Product List | Glossary Off
Versions: 1 2 3 4 5 6 7 8 9 10 11 12 13 14 15 16 17 18 19 20 21 22 23 24 25 26 27 28 29 30 31 32 33 34 35 36 37 38 39 40 41 42 43 44 45 46 47 48 49 50

000
ASUS43 KLOT 240503
RWRIL

ILLINOIS REGIONAL WEATHER ROUNDUP
NATIONAL WEATHER SERVICE CHICAGO/ROMEOVILLE IL
1100 PM CST FRI FEB 23 2018

NOTE: "FAIR" INDICATES FEW OR NO CLOUDS BELOW 12,000 FEET WITH NO
SIGNIFICANT WEATHER AND/OR OBSTRUCTIONS TO VISIBILITY.

* THESE STATIONS ARE NOT UNDER NWS QUALITY CONTROL. THEY ALSO MAY NOT
  REPORT WEATHER SUCH AS PRECIPITATION OR FOG.

ILZ001-002-007-009-015-016-024-240600-
NORTHWEST ILLINOIS

CITY           SKY/WX    TMP DP  RH WIND       PRES   REMARKS
MOLINE         FAIR      31  27  85 CALM      30.28F
STERLING*      FAIR      29  27  92 W3        30.29R
SAVANNA*       FAIR      29  27  90 NW5       30.29S WCI  24
$$

ILZ003-004-008-010-011-017-018-240600-
NORTH CENTRAL ILLINOIS

CITY           SKY/WX    TMP DP  RH WIND       PRES   REMARKS
ROCKFORD       CLOUDY    30  27  88 CALM      30.28S
FREEPORT*      FAIR      29  27  94 CALM      30.29R
ROCHELLE*      FAIR      30  29  96 W3        30.28R
DE KALB*       FAIR      31  29  93 W3        30.27S
PERU*          FAIR      30  29  94 NW6       30.29S FOG     WCI  24
$$

ILZ005-006-012>014-019>023-240600-
NORTHEAST ILLINOIS

CITY           SKY/WX    TMP DP  RH WIND       PRES   REMARKS
CHICAGO-OHARE  CLOUDY    34  28  79 CALM      30.26S
CHICAGO-MIDWAY CLOUDY    37  32  82 NW9       30.27S WCI  30
AURORA         FAIR      32  30  92 W5        30.27F FOG     WCI  27
LANSING*       CLOUDY    36  35  96 CALM      30.26F
JOLIET*        FAIR      35  32  90 N3        30.27F
WAUKEGAN       FAIR      32  29  88 CALM      30.25S
DUPAGE AIRPORT FAIR      31  30  96 CALM      30.26S FOG
KANKAKEE*      MOCLDY    36  34  91 W3        30.27S
WHEELING       FAIR      34  30  85 CALM      30.28R
MORRIS*        FAIR      32  31  94 NW3       30.26F
ROMEOVILLE*    FAIR      32  31  95 NW5       30.26F WCI  28
NORTHERLY ISL    N/A     37  31  79 W8          N/A  WCI  31
$$

LMZ740>746-240600-
SOUTHERN LAKE MICHIGAN

STATION/POSITION SKY/WX   TEMP    WIND        PRES    VSBY  WAVE
                          AIR SEA DIR/SP/G                  HT/PER
                          (F)     (DEG/KT/KT) (MB)    (MI)  (FT/S)
HARRISON CRIB              37     330/  8/  9   N/A
BURNHAM HARBOR             37     300/  6/  9   N/A
CALUMET HARBOR             38     210/  3/  5 1024.2S
BURNS HARBOR               37        CALM     1025.4S
MICHIGAN CITY              36     220/  6/  6   N/A
$$

ILZ025>027-034>036-040-047-049-050-058-095>099-240600-
WEST-CENTRAL ILLINOIS

CITY           SKY/WX    TMP DP  RH WIND       PRES   REMARKS
QUINCY         MOCLDY    34  32  92 NE10      30.20F WCI  26
GALESBURG*     FAIR      32  31  99 N7        30.27F WCI  25
MACOMB*        MOCLDY   N/A N/A N/A CALM      30.28S
JACKSONVILLE*  CLOUDY    36  33  91 NE5       30.23F WCI  32
PITTSFIELD*    CLOUDY    37  35  93 NE6       30.22F WCI  32
$$

ILZ028>032-037-038-041>044-048-051>054-059>061-240600-
CENTRAL ILLINOIS

CITY           SKY/WX    TMP DP  RH WIND       PRES   REMARKS
PONTIAC        CLOUDY    36  36  99 NW5       30.27S WCI  32
BLOOMINGTON    FAIR      35  33  92 CALM      30.26F
DECATUR        CLOUDY    37  36  96 N10       30.23F WCI  30
PEORIA         FAIR      35  33  92 CALM      30.26F
LACON*         FAIR      33  30  91 N5        30.27S WCI  28
LINCOLN*       FAIR      37  36  98 CALM      30.25F
SPRINGFIELD    CLOUDY    38  34  85 NE6       30.24F WCI  33
TAYLORVILLE    CLOUDY    37  36  98 N9        30.24F WCI  30
$$

ILZ033-039-045-046-055>057-062-063-240600-
EAST-CENTRAL ILLINOIS

CITY           SKY/WX    TMP DP  RH WIND       PRES   REMARKS
CHAMPAIGN      CLOUDY    38  37  97 NW8       30.23F FOG     WCI  32
DANVILLE*      CLOUDY    37  37  97 N8        30.22S FOG     WCI  31
RANTOUL*       CLOUDY    39  37  94 N5        30.25F
MATTOON        LGT RAIN  39  38  96 N9        30.22F WCI  33
PARIS*         DRIZZLE   39  39  99 N6        30.25S WCI  35
$$

ILZ079-100>102-240600-
SOUTHWEST ILLINOIS

CITY           SKY/WX    TMP DP  RH WIND       PRES   REMARKS
ALTON          RAIN      39  39 100 N5        30.22F
BELLEVILLE     LGT RAIN  41  40  93 N10       30.18F
CAHOKIA*       LGT RAIN  41  39  93 NE9       30.19F FOG
SPARTA*        RAIN      44  44 100 N7        30.20F
$$

ILZ064>066-069>071-074>076-080>082-084>086-088>090-092>094-240600-
SOUTH-CENTRAL ILLINOIS

CITY           SKY/WX    TMP DP  RH WIND       PRES   REMARKS
CARBONDALE     LGT RAIN  48  48 100 NW5       30.20R
CAIRO*         CLOUDY    50  49  95 CALM      30.19S
EFFINGHAM*     RAIN      41  41 100 NE3       30.24F
MARION         DRIZZLE   48  47  99 NW3       30.20R
MT. VERNON     CLOUDY    47  46  97 N7        30.18F
CENTRALIA*     LGT RAIN  44  44  98 N8        30.19F
SALEM*         RAIN      45  42  92 NE5       30.23R
METROPOLIS*    MOCLDY    50  48  93 E6        30.19S
$$

ILZ067-068-072-073-078-083-087-091-240600-
SOUTHEAST ILLINOIS

CITY           SKY/WX    TMP DP  RH WIND       PRES   REMARKS
LAWRENCEVILLE  CLOUDY    48  45  89 N13       30.19F
FLORA*         RAIN      45  44  94 N10       30.22S
FAIRFIELD*     DRIZZLE   47  47  98 MISG      30.20R
HARRISBURG*    CLOUDY    48  48  98 CALM      30.21R
ROBINSON*      LGT RAIN  43  43  98 N10       30.22S
CARMI*         CLOUDY    46  46 100 CALM      30.18F FOG
$$

ABBREVIATIONS USED IN REMARKS
   TC - TEMPERATURE IN CELSIUS
  WCI - WIND CHILL INDEX
   HX - HEAT INDEX
  VSB - VISIBILITY
$$





USA.gov is the U.S. government's official web portal to all federal, state and local government web resources and services.